Location: Étouvelles
(49.5207°N, 3.5808°E)
Time: 00:30:37
(UTC+00:00)

SL-16 R/B - Pass Details

Date: 03 February 2023
Orbit: 842 x 846 km, 71.0° (Epoch: 21 March)

Event Time Altitude Azimuth Distance (km) Brightness Sun altitude
Rises 18:30:25 0° 218° (SW) 3,389 6.0 -17.4°
Reaches altitude 10° 18:32:53 10° 222° (SW) 2,459 5.3 -17.8°
Maximum altitude 18:38:28 62° 303° (WNW) 946 2.6 -18.7°
Drops below altitude 10° 18:44:07 10° 24° (NNE) 2,476 4.4 -19.6°
Enters shadow 18:44:25 - 25° (NNE) 2,587 4.5 -19.7°
